Weather in Beauvechain

Belgium     50°46′49″N   4°46′26″E
temp.,
°C
wind,
m/s
gust,
m/s
humid.,
%
clouds,
%
prec.,
mm/h
press.,
hPa
HPBL,
m
28 september, tue
tue2823:00+11sw41089100 0.0 1021255
02:00+10ssw4991100 0.0 1023209
05:00+9ssw49946 0.0 1023161
08:00+9ssw4793100 0.0 1023129
11:00+15ssw4569100 0.0 1023502
14:00+17s4556100 0.0 10221011
17:00+18s575627 0.0 10201458
20:00+13s3679100 0.0 101998
29 september, wed
wed2923:00+12s41182100 0.0 1018210
02:00+11s51380100 0.0 1017299
05:00+14ssw71464100 0.0 1015715
08:00+12ssw81488100 1.0 10141008
11:00+12wsw8128029 3.9 10171200
14:00+14w9135615 4.6 10181933
17:00+13w8126026 0.6 10211660
20:00+10w510675 0.8 1023278
30 september, thu
thu3023:00+8sw510825 0.0 1025222
02:00+6sw511875 0.0 1027219
05:00+5wsw498929 0.0 1027173
08:00+5sw489016 0.0 1028145
11:00+11sw696756 0.0 1028624
14:00+13sw7852100 0.0 10271207
17:00+13sw695595 0.0 10251138
20:00+10ssw51165100 0.0 1025262
1 october, fri
fri123:00+11ssw61456100 0.0 1024392
02:00+11ssw71450100 0.0 1022403
05:00+10ssw61455100 0.0 1021352
08:00+10s61455100 0.0 1020375
11:00+11s7155793 0.0 1019463
14:00+16ssw8134991 0.0 1017850
17:00+16ssw71356100 0.0 1015831
20:00+14ssw61454100 0.0 1014584
2 october, sat
sat223:00+12ssw71372100 0.6 1013657
02:00+11ssw71492100 3.9 1012602
05:00+12ssw71293100 1.0 1011662
08:00+10sw5119599 1.1 1012362
11:00+12wsw6882100 0.0 1013799
14:00+11sw5881100 0.1 1012741
17:00+11ssw5878100 0.0 1010799
20:00+10ssw51079100 0.1 1008498